Location: Düngen
(52.0952°N, 10.0219°E)
Time: 14:52:20
(UTC+00:00)

Cosmos 2344 - Pass Details

Date: 11 March 2026
Orbit: 1194 x 3048 km, 63.3° (Epoch: 14 April)

Event Time Altitude Azimuth Distance (km) Brightness Sun altitude
Rises 22:41:28 0° 314° (NW) 4,197 7.0 -40.3°
Reaches altitude 10° 22:44:01 10° 311° (NW) 3,314 6.3 -40.4°
Enters shadow 22:49:11 45° 287° (WNW) 1,894 4.5 -40.6°
